Miscellaneous Local Product
Issued by NWS Hastings, NE

Home | Current Version | Previous Version | Graphics & Text | Print | Product List | Glossary On
Versions: 1 2 3 4 5 6 7 8 9 10 11 12 13 14 15 16 17 18 19 20 21 22 23 24 25 26 27 28 29 30 31 32 33 34 35 36 37 38 39 40 41 42 43 44 45 46 47 48 49 50
472
AXUS43 KGID 051402
MISGRI

GID CWA HOURLY WEATHER ROUNDUP
NATIONAL WEATHER SERVICE HASTINGS NE
800 AM CST MON DEC 05 2016

NOTE: "FAIR" INDICATES FEW OR NO CLOUDS BELOW 12,000 FEET WITH NO
SIGNIFICANT WEATHER AND/OR OBSTRUCTIONS TO VISIBILITY.

...SOUTH CENTRAL NEBRASKA...

CITY           SKY/WX    TMP DP  RH WIND       PRES   REMARKS
GRAND ISLAND   PTCLDY    37  27  67 S17       29.64F WCI  27
HASTINGS       PTCLDY    35  26  69 S10       29.66F WCI  27
KEARNEY        CLOUDY    34  25  69 S15       29.61F WCI  24
ORD            PTCLDY    38  22  52 S8        29.59F WCI  32
YORK           CLOUDY    36  28  75 S16       29.68F WCI  26
AURORA         MOCLDY    35  29  78 S13       29.66F WCI  26
LEXINGTON      CLOUDY    34  24  67 SE6       29.59S WCI  28
HOLDREGE       PTCLDY    32  26  77 SE10      29.60F WCI  24
HEBRON         PTCLDY    34  28  77 S10       29.71F WCI  26

...NEBRASKA PANHANDLE...

CITY           SKY/WX    TMP DP  RH WIND       PRES   REMARKS
CHADRON        CLEAR     34  23  64 W3        29.52R
ALLIANCE       CLOUDY    41  22  46 W8        29.53S
SCOTTSBLUFF    PTCLDY    45  23  42 W10       29.54S
SIDNEY         CLOUDY    34  20  56 W9        29.57R WCI  27

...WESTERN AND NORTH CENTRAL NEBRASKA...

CITY           SKY/WX    TMP DP  RH WIND       PRES   REMARKS
VALENTINE      CLOUDY    39  21  48 SW10      29.49F WCI  32
AINSWORTH      PTCLDY    39  23  51 SW12      29.50F WCI  32
ONEILL         CLOUDY    38  23  55 S12       29.54F WCI  30
BROKEN BOW     PTCLDY    35  23  61 S6        29.56F WCI  30
IMPERIAL       CLOUDY    30  19  63 N5        29.55F WCI  25
NORTH PLATTE   CLOUDY    34  21  59 SW6       29.60R WCI  29
MCCOOK         CLOUDY    29  21  72 W5        29.60S WCI  24

...EASTERN NEBRASKA...

CITY           SKY/WX    TMP DP  RH WIND       PRES   REMARKS
NORFOLK        PTCLDY    36  26  67 S9        29.63F WCI  29
SO SIOUX CITY  CLOUDY    40  30  67 S14G21    29.67F WCI  32
TEKAMAH        PTCLDY    33  30  88 SE12      29.72F WCI  24
COLUMBUS       CLOUDY    36  27  69 S14       29.68F WCI  27
ALBION         CLOUDY    36  27  69 SE7       29.62F WCI  31
OMAHA EPPLEY   MOCLDY    36  29  75 S16       29.76F WCI  26
OFFUTT AFB     PTCLDY    34  34  99 S10       29.77F WCI  26
MILLARD        PTCLDY    34  30  86 SE7       29.77S WCI  28
LINCOLN        CLOUDY    35  29  78 S12       29.74F WCI  27
NEBRASKA CITY  CLEAR     34  29  84 S13       29.79S WCI  25
BEATRICE       CLEAR     36  30  80 S13       29.76F WCI  27
FALLS CITY     CLEAR     35  32  88 S12       29.82F WCI  27

...NORTHERN KANSAS...

CITY           SKY/WX    TMP DP  RH WIND       PRES   REMARKS
GOODLAND       CLOUDY    28  15  58 SW10      29.58S WCI  19
HILL CITY      CLEAR     37  26  64 SW14      29.63F WCI  28
NORTON         SUNNY     34  21  60 S6        29.60F WCI  29
PHILLIPSBURG   CLEAR     34  27  75 SW3       29.65S
SMITH CENTER   CLEAR     30  25  80 SE13      29.67F WCI  20
BELOIT         CLEAR     34  28  80 SE9       29.71F WCI  26
HAYS           CLEAR     36  27  69 S14       29.67S WCI  27
RUSSELL        CLEAR     35  28  75 S20       29.67S WCI  24
CONCORDIA      CLEAR     38  30  73 S13G22    29.74R WCI  30
SALINA         CLEAR     35  31  85 S15       29.76F WCI  25
TOPEKA         CLEAR     33  30  88 S6        29.87F WCI  28



USA.gov is the U.S. government's official web portal to all federal, state and local government web resources and services.